When you browse on this site, cookies collect data to enhance your experience and personalize the content and advertising you see.
Visit our Privacy Policy to learn more. By continuing to use the site, you agree to this use of cookies and data.
  • In Hungary
  • List of Countries
  • For 7 days
  • Water Temperature
  • Satellite Maps
  • Weather Map
  • News
  • Weather Widgets
  • user-avatar
    Login

    Hourly Weather Ivanovka Vtoraya

    Today, 20 November, Tuesday

    Time Temperature Precipitation Wind Pressure Humidity
    00:00 -4°C° 0 mm 2 mps 759 mmHg 59%
    01:00 -4°C° 0 mm 2 mps 759 mmHg 63%
    02:00 -4°C° 0 mm 2 mps 759 mmHg 69%
    03:00 -4°C° 0 mm 2 mps 758 mmHg 74%
    04:00 -2°C° 0 mm 1 mps 758 mmHg 82%
    05:00 -2°C° 0 mm 1 mps 758 mmHg 85%
    06:00 -1°C° 0 mm 1 mps 758 mmHg 88%
    07:00 -1°C° 0 mm 1 mps 758 mmHg 91%
    08:00 -3°C° 0 mm 2 mps 758 mmHg 90%
    09:00 -3°C° 0 mm 2 mps 758 mmHg 90%
    10:00 -2°C° 0 mm 2 mps 758 mmHg 90%
    11:00 -2°C° 0 mm 2 mps 757 mmHg 87%
    12:00 -1°C° 0 mm 2 mps 757 mmHg 85%
    13:00 -1°C° 0 mm 2 mps 757 mmHg 83%
    14:00 -1°C° 0 mm 2 mps 756 mmHg 84%
    15:00 -1°C° 0 mm 2 mps 756 mmHg 86%
    16:00 -1°C° 0 mm 2 mps 756 mmHg 88%
    17:00 -2°C° 0.1 mm 2 mps 756 mmHg 90%
    18:00 -2°C° 0.1 mm 2 mps 755 mmHg 92%
    19:00 -2°C° 0.1 mm 2 mps 755 mmHg 95%
    20:00 -2°C° 0.1 mm 2 mps 755 mmHg 95%
    21:00 -2°C° 0.1 mm 2 mps 755 mmHg 95%
    22:00 -2°C° 0.1 mm 2 mps 754 mmHg 96%
    23:00 -2°C° 0.1 mm 2 mps 754 mmHg 96%

    Tomorrow, 21 November, Wednesday

    Time Temperature Precipitation Wind Pressure Humidity
    00:00 -2°C° 0.1 mm 2 mps 754 mmHg 96%
    01:00 -3°C° 0.1 mm 2 mps 753 mmHg 96%
    02:00 -3°C° 0.1 mm 2 mps 753 mmHg 96%
    03:00 -3°C° 0.1 mm 2 mps 753 mmHg 96%
    04:00 -4°C° 0.1 mm 3 mps 752 mmHg 96%
    05:00 -4°C° 0 mm 3 mps 752 mmHg 95%
    06:00 -4°C° 0 mm 3 mps 752 mmHg 95%
    07:00 -4°C° 0 mm 3 mps 751 mmHg 95%
    08:00 -4°C° 0 mm 3 mps 751 mmHg 92%
    09:00 -4°C° 0 mm 4 mps 750 mmHg 90%
    10:00 -4°C° 0 mm 4 mps 750 mmHg 87%
    11:00 -4°C° 0.1 mm 5 mps 749 mmHg 85%
    12:00 -4°C° 0.1 mm 5 mps 749 mmHg 83%
    13:00 -4°C° 0.1 mm 6 mps 748 mmHg 81%
    14:00 -4°C° 0.3 mm 6 mps 747 mmHg 83%
    15:00 -4°C° 0.3 mm 6 mps 747 mmHg 84%
    16:00 -5°C° 0.3 mm 6 mps 747 mmHg 86%
    17:00 -5°C° 0.1 mm 6 mps 746 mmHg 86%
    18:00 -5°C° 0.1 mm 6 mps 746 mmHg 86%
    19:00 -5°C° 0.1 mm 5 mps 746 mmHg 85%
    20:00 -5°C° 0 mm 5 mps 746 mmHg 86%
    21:00 -5°C° 0 mm 5 mps 746 mmHg 86%
    22:00 -6°C° 0 mm 5 mps 746 mmHg 86%
    23:00 -6°C° 0 mm 5 mps 746 mmHg 85%

    Day after tomorrow, 22 November, Thursday

    Time Temperature Precipitation Wind Pressure Humidity
    00:00 -7°C° 0 mm 5 mps 746 mmHg 84%
    01:00 -8°C° 0 mm 5 mps 746 mmHg 82%
    02:00 -8°C° 0 mm 5 mps 746 mmHg 82%
    03:00 -8°C° 0 mm 5 mps 746 mmHg 83%
    04:00 -10°C° 0 mm 5 mps 746 mmHg 83%
    05:00 -10°C° 0 mm 5 mps 746 mmHg 83%
    06:00 -10°C° 0 mm 5 mps 746 mmHg 84%
    07:00 -10°C° 0 mm 5 mps 746 mmHg 85%
    08:00 -10°C° 0 mm 5 mps 747 mmHg 84%
    09:00 -10°C° 0 mm 5 mps 747 mmHg 84%
    10:00 -10°C° 0 mm 5 mps 747 mmHg 84%
    11:00 -8°C° 0 mm 5 mps 747 mmHg 80%
    12:00 -9°C° 0 mm 6 mps 747 mmHg 77%
    13:00 -8°C° 0 mm 6 mps 747 mmHg 73%
    14:00 -7°C° 0 mm 5 mps 747 mmHg 74%
    15:00 -7°C° 0 mm 5 mps 747 mmHg 74%
    16:00 -8°C° 0 mm 4 mps 747 mmHg 74%
    17:00 -8°C° 0 mm 4 mps 746 mmHg 77%
    18:00 -8°C° 0 mm 4 mps 746 mmHg 79%
    19:00 -8°C° 0 mm 4 mps 746 mmHg 82%
    20:00 -8°C° 0 mm 5 mps 746 mmHg 81%
    21:00 -8°C° 0 mm 5 mps 745 mmHg 81%
    22:00 -9°C° 0 mm 6 mps 745 mmHg 80%
    23:00 -9°C° 0 mm 6 mps 744 mmHg 81%

    23 November, Friday

    Time Temperature Precipitation Wind Pressure Humidity
    00:00 -9°C° 0 mm 7 mps 743 mmHg 82%
    01:00 -10°C° 0 mm 8 mps 743 mmHg 83%
    02:00 -10°C° 0.1 mm 8 mps 742 mmHg 84%
    03:00 -10°C° 0.1 mm 9 mps 741 mmHg 84%
    04:00 -10°C° 0.1 mm 9 mps 740 mmHg 84%
    05:00 -10°C° 0.4 mm 9 mps 739 mmHg 86%
    06:00 -10°C° 0.4 mm 9 mps 738 mmHg 87%
    07:00 -10°C° 0.4 mm 9 mps 737 mmHg 89%
    08:00 -8°C° 0.4 mm 8 mps 737 mmHg 88%
    09:00 -8°C° 0.4 mm 7 mps 736 mmHg 87%
    10:00 -8°C° 0.4 mm 7 mps 736 mmHg 86%
    11:00 -8°C° 0.1 mm 6 mps 736 mmHg 85%
    12:00 -8°C° 0.1 mm 6 mps 736 mmHg 84%
    13:00 -8°C° 0.1 mm 6 mps 736 mmHg 83%
    14:00 -8°C° 0.2 mm 7 mps 737 mmHg 84%
    15:00 -10°C° 0.2 mm 9 mps 738 mmHg 84%
    16:00 -10°C° 0.2 mm 10 mps 739 mmHg 85%
    17:00 -12°C° 0.2 mm 10 mps 740 mmHg 84%
    18:00 -12°C° 0.2 mm 11 mps 741 mmHg 82%
    19:00 -13°C° 0.2 mm 11 mps 743 mmHg 81%
    20:00 -13°C° 0.1 mm 11 mps 744 mmHg 80%
    21:00 -14°C° 0.1 mm 11 mps 746 mmHg 79%
    22:00 -14°C° 0.1 mm 10 mps 747 mmHg 78%
    23:00 -14°C° 0 mm 10 mps 748 mmHg 80%

    24 November, Saturday

    Time Temperature Precipitation Wind Pressure Humidity
    00:00 -15°C° 0 mm 9 mps 749 mmHg 82%
    01:00 -15°C° 0 mm 8 mps 751 mmHg 84%
    02:00 -15°C° 0 mm 8 mps 752 mmHg 85%
    03:00 -14°C° 0 mm 7 mps 753 mmHg 86%
    04:00 -14°C° 0 mm 7 mps 754 mmHg 87%
    05:00 -14°C° 0 mm 6 mps 754 mmHg 89%
    06:00 -13°C° 0 mm 5 mps 755 mmHg 90%
    07:00 -13°C° 0 mm 5 mps 755 mmHg 91%
    08:00 -13°C° 0 mm 5 mps 756 mmHg 91%
    09:00 -12°C° 0 mm 5 mps 756 mmHg 90%
    10:00 -12°C° 0 mm 5 mps 756 mmHg 90%
    11:00 -11°C° 0 mm 5 mps 756 mmHg 87%
    12:00 -11°C° 0 mm 6 mps 756 mmHg 85%
    13:00 -10°C° 0 mm 6 mps 756 mmHg 83%
    14:00 -10°C° 0 mm 6 mps 756 mmHg 81%
    15:00 -11°C° 0 mm 7 mps 756 mmHg 79%
    16:00 -11°C° 0 mm 7 mps 756 mmHg 77%
    17:00 -11°C° 0 mm 7 mps 756 mmHg 77%
    18:00 -11°C° 0 mm 8 mps 755 mmHg 76%
    19:00 -11°C° 0 mm 8 mps 755 mmHg 76%
    20:00 -11°C° 0 mm 8 mps 755 mmHg 75%
    21:00 -11°C° 0 mm 8 mps 755 mmHg 74%
    22:00 -11°C° 0 mm 9 mps 755 mmHg 74%
    23:00 -11°C° 0 mm 9 mps 755 mmHg 74%

    25 November, Sunday

    Time Temperature Precipitation Wind Pressure Humidity
    00:00 -11°C° 0 mm 9 mps 754 mmHg 74%
    01:00 -11°C° 0 mm 8 mps 754 mmHg 74%
    02:00 -11°C° 0 mm 8 mps 754 mmHg 75%
    03:00 -11°C° 0 mm 8 mps 754 mmHg 77%
    04:00 -10°C° 0 mm 8 mps 754 mmHg 78%
    05:00 -9°C° 0 mm 7 mps 754 mmHg 80%
    06:00 -9°C° 0 mm 7 mps 754 mmHg 82%
    07:00 -9°C° 0 mm 6 mps 754 mmHg 84%
    08:00 -9°C° 0 mm 6 mps 755 mmHg 85%
    09:00 -9°C° 0 mm 6 mps 755 mmHg 86%
    10:00 -8°C° 0 mm 5 mps 755 mmHg 88%
    11:00 -7°C° 0 mm 5 mps 755 mmHg 87%
    12:00 -7°C° 0 mm 5 mps 755 mmHg 87%
    13:00 -7°C° 0 mm 5 mps 755 mmHg 87%
    14:00 -7°C° 0 mm 5 mps 755 mmHg 88%
    15:00 -7°C° 0 mm 4 mps 754 mmHg 88%
    16:00 -8°C° 0 mm 4 mps 754 mmHg 89%
    17:00 -8°C° 0 mm 4 mps 754 mmHg 90%
    18:00 -8°C° 0 mm 4 mps 754 mmHg 90%
    19:00 -8°C° 0 mm 4 mps 754 mmHg 90%
    20:00 -8°C° 0 mm 4 mps 754 mmHg 91%
    21:00 -7°C° 0 mm 3 mps 754 mmHg 91%
    22:00 -8°C° 0 mm 3 mps 754 mmHg 91%
    23:00 -8°C° 0 mm 3 mps 754 mmHg 91%
    Show more